Wind_Speed
23 23 23 23 23 24 24 24 23 23 24 24 24 25 25 25 26 26 27 28 28 28 29 30 31 32 32 33 34 35 36 37 37 38 39 39 40 40
22 22 23 23 24 24 24 24 23 22 22 23 23 24 25 25 25 26 26 27 28 28 28 29 30 31 32 33 33 33 35 35 35 36 37 38 39 39
22 22 22 23 23 24 23 22 22 22 22 23 24 24 25 26 26 26 26 27 28 27 28 29 30 31 31 31 33 33 33 34 35 36 37 37 38 38
23 22 22 22 23 23 23 23 23 23 23 23 23 24 25 26 26 26 27 27 27 27 27 28 29 30 30 30 31 32 32 33 34 35 36 36 38 38
23 22 22 23 23 23 23 23 23 23 24 24 24 25 25 26 27 26 26 25 26 27 27 28 29 30 30 30 30 31 31 32 34 35 35 35 37 38
22 22 23 23 23 24 24 23 23 23 24 24 24 24 25 25 26 27 25 25 26 27 27 27 28 28 29 30 30 30 31 32 33 33 35 36 36 37
22 23 23 24 24 24 23 23 23 23 23 23 23 23 24 25 26 26 25 26 26 27 27 27 27 27 28 29 29 29 30 31 32 33 34 36 36 37
22 23 24 24 24 23 23 22 22 22 22 23 23 24 24 25 25 25 25 25 25 27 27 28 28 27 27 28 29 29 30 31 32 32 33 34 35 36
23 24 24 24 23 23 22 22 22 22 23 23 23 24 24 24 24 24 24 24 24 25 26 26 27 27 27 27 28 28 29 29 30 31 33 33 34 35
23 24 24 23 22 21 21 22 23 23 23 23 23 23 23 24 24 24 25 24 23 23 24 24 26 26 27 27 27 28 28 29 29 30 32 32 33 35
23 24 24 23 22 22 23 23 23 23 23 23 23 24 24 24 24 23 23 23 22 23 23 23 23 24 25 26 26 26 26 27 28 28 29 31 32 33
23 24 23 23 23 23 23 23 22 22 23 23 23 23 23 23 23 22 22 22 22 22 22 23 23 24 24 24 25 25 25 25 27 28 28 29 30 32
23 23 23 23 24 24 23 23 22 22 22 22 21 22 23 23 22 22 22 22 21 21 21 22 22 22 23 23 24 24 25 26 26 27 28 28 28 29
23 23 23 23 24 23 23 23 22 21 21 20 20 20 21 20 20 20 20 20 20 20 20 20 21 22 22 23 23 24 25 25 26 27 28 28 29 29
23 24 24 24 24 23 23 23 22 21 20 19 20 20 19 19 19 18 19 19 20 20 20 20 21 21 22 23 23 24 24 25 25 26 27 28 28 28
24 25 25 24 24 23 23 23 22 21 20 20 19 19 18 18 18 18 18 18 19 19 20 21 21 22 22 22 23 24 24 24 24 25 26 27 28 28
24 25 25 24 23 23 22 22 21 21 20 19 19 18 18 18 18 18 18 18 19 19 20 20 20 20 21 22 22 23 24 25 25 25 25 26 27 27
24 25 25 24 23 22 22 21 21 20 20 19 19 18 18 18 17 18 18 18 18 18 19 19 19 19 19 20 21 21 22 22 23 23 24 25 25 26
24 24 24 23 22 22 21 21 20 20 19 19 19 18 18 17 17 17 17 17 18 18 18 19 19 19 20 20 21 21 21 21 21 22 22 23 24 25
24 24 24 23 22 22 22 22 21 21 20 19 19 18 17 17 17 17 17 17 17 18 18 18 19 19 20 20 20 20 20 20 20 20 21 21 22 22
24 24 24 23 23 23 23 22 22 21 21 20 19 18 18 17 17 17 17 17 17 18 18 18 18 19 19 19 19 18 19 19 19 19 18 19 19 20
24 24 23 23 23 23 23 23 22 21 21 21 19 19 18 18 17 17 17 17 18 18 18 18 18 18 18 18 18 18 18 18 18 18 17 17 17 18
23 23 23 23 23 24 24 24 23 22 21 21 20 19 19 18 17 17 17 17 17 18 18 18 18 18 18 18 17 17 18 18 18 18 17 17 17 17
Wind_Direction
297 295 295 294 293 292 292 290 286 282 280 278 276 274 271 269 269 269 268 266 264 262 261 260 259 258 257 258 258 254 251 249 247 246 245 243 242 242
299 297 298 297 295 294 293 292 289 286 281 278 275 274 274 271 270 269 269 266 264 264 261 260 260 259 258 258 257 255 252 250 250 248 246 244 243 242
303 302 299 298 296 294 295 294 292 290 288 283 278 276 275 272 272 270 269 267 264 263 262 261 260 259 259 258 257 255 252 251 251 249 248 247 245 243
305 305 302 299 297 297 296 294 293 293 291 288 283 278 276 273 273 271 268 266 264 263 263 261 261 260 259 259 258 255 253 252 250 249 248 247 246 244
307 305 304 302 298 298 296 295 294 294 293 291 286 281 279 275 273 272 270 265 263 263 264 262 261 261 259 259 257 254 253 252 251 249 248 247 246 245
309 306 305 305 302 299 298 297 295 294 293 291 288 284 282 280 276 274 271 268 265 264 264 263 263 262 260 258 257 255 253 252 251 250 247 246 245 245
310 308 306 305 304 301 299 297 295 294 292 291 288 285 285 281 277 275 272 270 267 265 263 262 263 263 260 257 256 256 254 253 253 251 248 246 245 245
312 311 309 307 307 303 301 299 297 294 292 290 289 287 286 285 280 276 273 270 268 266 266 265 264 263 262 260 258 257 255 253 251 250 248 247 246 246
314 314 312 309 309 307 304 301 299 297 294 292 289 289 287 286 283 279 276 275 272 268 267 266 265 263 261 260 260 258 256 254 252 250 249 247 247 247
315 315 315 314 313 310 307 305 301 299 297 294 290 289 289 287 285 282 280 278 276 271 269 268 265 263 262 261 261 260 257 255 254 252 249 248 249 248
315 315 316 316 314 311 309 307 303 299 297 295 292 290 289 287 286 285 281 277 277 274 270 267 266 265 263 262 262 262 260 255 253 254 251 249 249 249
319 319 318 316 318 316 313 309 304 301 299 296 293 291 291 289 285 283 281 278 277 277 273 270 267 265 263 263 263 264 261 258 255 255 255 253 252 251
323 322 320 317 318 318 316 312 308 305 302 298 296 293 292 290 285 282 281 279 277 276 275 273 270 266 263 262 263 264 263 261 259 257 257 256 254 252
325 323 321 319 320 321 318 316 312 308 304 301 299 297 296 293 288 284 283 281 279 278 277 275 273 271 268 266 265 265 265 263 261 260 258 256 255 254
327 326 323 322 322 321 319 317 315 311 309 305 301 301 300 296 292 289 288 286 281 279 278 278 277 276 274 271 267 265 265 264 263 261 260 257 256 256
330 330 327 324 322 320 320 319 317 315 311 311 307 305 304 300 296 293 291 289 286 282 279 277 277 277 275 271 268 265 264 264 264 263 262 260 259 258
335 334 333 330 327 325 324 324 322 320 317 314 312 311 309 305 301 297 294 291 288 285 281 277 278 278 277 273 270 268 267 267 267 267 264 261 259 258
335 335 334 333 329 328 327 325 323 321 318 316 313 310 309 307 304 299 295 294 293 289 285 281 279 276 276 275 273 272 270 269 269 268 267 262 259 257
338 336 334 334 332 329 328 328 327 324 321 319 318 316 314 310 305 302 299 296 296 293 290 285 282 280 280 280 278 277 276 273 271 269 267 264 259 256
340 339 339 338 335 332 331 331 330 329 325 323 322 321 320 316 309 305 303 300 298 295 292 288 286 286 287 285 283 280 277 274 272 270 269 266 260 257
341 341 342 341 339 337 336 335 333 330 327 325 324 323 321 319 315 310 307 306 302 299 294 290 289 289 288 287 284 281 278 276 273 271 269 266 261 258
343 343 342 342 341 341 340 337 334 331 329 326 325 324 323 321 317 313 309 306 305 302 298 293 290 290 288 287 285 281 279 276 273 270 267 266 264 259
341 343 344 343 343 342 341 339 337 334 331 329 327 325 324 322 320 319 315 311 310 306 301 296 293 291 289 289 286 283 281 278 272 269 267 264 264 261
Height
5732 5730 5727 5725 5722 5720 5718 5715 5714 5712 5710 5709 5707 5705 5705 5704 5703 5703 5702 5701 5701 5701 5701 5701 5702 5702 5702 5703 5704 5705 5706 5708 5710 5713 5715 5718 5721 5724
5726 5724 5721 5718 5716 5713 5711 5708 5706 5704 5703 5701 5699 5698 5697 5696 5696 5695 5694 5693 5692 5692 5692 5692 5692 5693 5693 5694 5694 5695 5696 5698 5700 5702 5705 5707 5710 5713
5720 5718 5715 5712 5710 5707 5704 5701 5699 5697 5695 5694 5692 5690 5689 5688 5687 5686 5685 5685 5684 5684 5683 5683 5683 5684 5684 5684 5685 5686 5687 5688 5690 5692 5695 5697 5700 5703
5714 5712 5709 5706 5703 5701 5698 5695 5693 5690 5688 5686 5685 5683 5681 5680 5679 5678 5677 5676 5676 5675 5675 5674 5674 5674 5675 5675 5676 5676 5678 5679 5681 5683 5685 5688 5690 5693
5708 5706 5703 5700 5697 5694 5691 5688 5686 5683 5681 5679 5677 5675 5673 5672 5670 5669 5669 5668 5668 5667 5666 5666 5666 5666 5666 5667 5667 5668 5669 5670 5671 5673 5675 5678 5680 5683
5702 5700 5697 5694 5691 5688 5684 5682 5679 5676 5674 5672 5669 5667 5665 5663 5662 5661 5660 5660 5659 5659 5658 5658 5658 5658 5658 5658 5659 5659 5660 5661 5662 5664 5666 5668 5671 5674
5698 5694 5691 5687 5684 5681 5677 5675 5672 5669 5667 5664 5662 5660 5658 5656 5655 5653 5652 5651 5651 5650 5650 5650 5650 5650 5649 5650 5650 5651 5651 5652 5653 5655 5657 5659 5661 5664
5693 5689 5685 5681 5677 5674 5671 5668 5665 5663 5660 5658 5655 5653 5651 5649 5647 5645 5644 5643 5643 5643 5642 5642 5641 5641 5641 5641 5641 5642 5642 5643 5645 5646 5647 5649 5652 5654
5687 5684 5679 5675 5671 5667 5664 5661 5658 5656 5653 5651 5649 5646 5644 5641 5639 5638 5636 5635 5634 5634 5633 5633 5633 5633 5633 5633 5633 5633 5634 5634 5636 5637 5638 5640 5642 5644
5682 5678 5673 5669 5664 5661 5658 5655 5652 5649 5646 5644 5641 5639 5636 5634 5632 5630 5629 5628 5627 5625 5625 5625 5625 5625 5625 5625 5625 5625 5625 5626 5627 5628 5630 5631 5633 5635
5676 5672 5667 5663 5659 5655 5652 5648 5645 5642 5639 5636 5633 5631 5629 5626 5624 5622 5621 5620 5619 5618 5617 5617 5617 5617 5617 5617 5617 5617 5617 5618 5619 5620 5621 5622 5623 5625
5671 5666 5662 5658 5654 5649 5645 5642 5638 5635 5632 5629 5626 5623 5621 5618 5617 5615 5614 5613 5612 5611 5610 5609 5609 5609 5610 5609 5609 5609 5610 5610 5611 5612 5612 5613 5614 5615
5666 5661 5657 5652 5648 5644 5639 5635 5632 5628 5625 5622 5619 5616 5614 5611 5609 5608 5607 5606 5605 5604 5603 5602 5602 5601 5602 5602 5602 5602 5602 5602 5603 5604 5604 5604 5605 5606
5661 5656 5652 5647 5642 5638 5633 5629 5626 5622 5618 5615 5613 5610 5608 5605 5603 5601 5600 5599 5598 5597 5596 5595 5595 5594 5594 5595 5595 5595 5594 5594 5595 5595 5596 5596 5597 5597
5656 5651 5646 5641 5636 5632 5628 5624 5620 5616 5613 5610 5607 5604 5601 5599 5597 5595 5594 5592 5591 5590 5589 5589 5588 5587 5587 5587 5587 5587 5586 5587 5586 5586 5587 5587 5588 5589
5651 5646 5641 5636 5631 5626 5622 5618 5614 5610 5607 5604 5601 5598 5596 5594 5592 5590 5588 5586 5585 5584 5582 5581 5580 5580 5579 5579 5578 5578 5578 5578 5578 5578 5578 5579 5579 5580
5646 5641 5636 5631 5626 5622 5617 5613 5609 5605 5602 5599 5596 5593 5591 5588 5586 5584 5582 5580 5579 5577 5576 5575 5573 5573 5572 5572 5571 5570 5570 5570 5570 5570 5570 5570 5571 5571
5642 5637 5632 5627 5622 5618 5613 5609 5605 5601 5597 5594 5591 5588 5585 5583 5581 5578 5576 5574 5573 5571 5570 5568 5568 5567 5566 5565 5564 5563 5563 5562 5562 5562 5562 5562 5563 5563
5639 5633 5628 5623 5618 5614 5609 5605 5601 5596 5592 5589 5586 5583 5580 5577 5575 5573 5570 5569 5567 5565 5564 5562 5561 5560 5559 5558 5557 5556 5556 5555 5555 5554 5554 5554 5555 5555
5636 5630 5624 5619 5614 5610 5605 5601 5597 5592 5588 5585 5581 5578 5575 5572 5570 5567 5565 5563 5561 5559 5558 5556 5555 5553 5552 5552 5551 5550 5549 5548 5548 5547 5547 5547 5547 5548
5632 5627 5621 5616 5611 5606 5602 5597 5593 5588 5584 5580 5577 5573 5570 5567 5564 5562 5560 5557 5555 5553 5552 5550 5549 5547 5546 5545 5544 5543 5542 5541 5541 5540 5540 5540 5540 5541
5629 5624 5618 5613 5608 5603 5598 5594 5589 5585 5580 5576 5572 5569 5565 5562 5559 5557 5554 5552 5550 5548 5546 5544 5542 5541 5540 5539 5537 5536 5535 5535 5534 5534 5534 5534 5534 5535
5626 5621 5615 5610 5605 5600 5595 5590 5585 5580 5576 5572 5568 5564 5561 5558 5555 5552 5549 5547 5545 5542 5540 5538 5537 5535 5533 5532 5531 5530 5529 5528 5528 5528 5528 5528 5529 5529